World > North America > United States > Texas

Saspamco, Texas Regional Weather

Lat: 29.23N, Lon: 98.37W
Wx Zone: TXZ205Web Search

Helpful Tip: Type the letters wx in the search engine next time you need to find us.

Feedback


°F Click to change Saspamco hourly weather to Imperial units.Click to change Saspamco hourly weather to Metric units. °C
Saspamco Weather Map
UTC Time: 5/7/2021, 13:53
Your Time:

Saspamco, TX Regional Weather

Expires:202105071400;;736020
ASUS44 KSJT 071315
RWRSJT
WEST CENTRAL TEXAS REGIONAL WEATHER ROUNDUP
NATIONAL WEATHER SERVICE SAN ANGELO TX
800 AM CDT FRI MAY 07 2021

NOTE: "FAIR" INDICATES FEW OR NO CLOUDS BELOW 12,000 FEET WITH NO
SIGNIFICANT WEATHER AND/OR OBSTRUCTIONS TO VISIBILITY.


TXZ145-158-159-173-191-192-194-205-207-220-223-071400-
CENTRAL AND SOUTH CENTRAL TEXAS
  
CITY           SKY/WX    TMP DP  RH WIND       PRES   REMARKS
AUSTIN/BERGSTM MOSUNNY   61  60  97 CALM      30.19R                  
WACO           SUNNY     62  56  80 CALM      30.19R                  
HILLSBORO      SUNNY     66  56  70 SE6       30.19S                  
TEMPLE         MOSUNNY   65  58  78 SE5       30.20R                  
KILLEEN-GRAY   SUNNY     65  55  70 SE6       30.18R                  
FORT HOOD      SUNNY     65  55  69 SE5       30.19R                  
GEORGETOWN     NOT AVBL                                               
LAGO VISTA     FAIR      64  57  77 CALM      30.20R                  
SAN MARCOS     SUNNY     63  61  93 CALM      30.20R                  
NEW BRAUNFELS  SUNNY     66  61  84 CALM      30.17R                  
RANDOLPH AFB   SUNNY     63  60  91 NW3       30.16R                  
SAN ANTONIO    MOSUNNY   65  58  78 NW3       30.19R                  
STINSON        SUNNY     67  62  84 NE3       30.16R                  
PLEASANTON     NOT AVBL                                               
LA GRANGE      SUNNY     65  64  97 CALM      30.17R                  
GIDDINGS       SUNNY     64  62  93 CALM      30.20R                  
$$


SKY/WX - Weather  TMP - Temperature  DP - Dew Point  RH - Relative Humidity
WIND - Wind Direction/Speed PRES - Barometric Pressure VSB - Visibility
WCI - Wind Chill Index E13G22 Wind - East Wind 13 mph/Gusts of 22 mph